Dewpoint
25 22 21 27 16 16 15 18 13 14 19 16 15 16 17 19 20 22 24 24 25 26 27 29 30 32 31 31 28 28 30 30 32 33 33 33 34 35 35 36 35 35 35 35
20 22 21 20 21 19 17 20 15 15 18 23 16 17 16 17 18 19 20 22 23 24 25 25 27 29 31 30 28 28 30 31 31 33 33 34 34 35 36 36 36 35 35 36
17 20 21 20 18 17 15 17 17 13 17 18 16 13 10 15 17 21 20 21 22 22 22 23 24 26 28 29 28 27 29 31 31 33 34 34 34 35 35 35 36 36 36 36
19 20 19 19 18 16 11 18 18 18 14 6 13 4 11 18 14 20 19 17 18 21 22 22 22 23 26 27 28 26 27 30 32 33 33 33 32 32 34 34 35 36 36 35
15 17 17 18 18 16 12 20 17 22 21 20 12 7 9 11 27 28 19 16 17 19 21 23 22 22 24 26 27 25 25 29 31 33 33 34 33 34 34 34 34 35 36 35
18 19 19 17 18 17 20 23 26 28 25 15 21 8 7 12 11 29 30 14 15 17 20 23 24 23 24 26 26 26 25 26 29 32 33 33 33 33 34 34 34 35 36 36
22 18 16 17 17 20 21 21 19 20 17 17 19 14 11 11 15 17 15 15 17 17 18 22 22 24 24 25 27 27 26 26 27 29 31 32 32 32 32 32 33 33 35 36
15 8 16 16 15 16 16 19 18 8 11 11 17 14 11 14 15 18 17 16 18 19 19 20 23 25 25 24 25 28 28 27 28 28 29 31 31 33 33 33 33 34 34 35
15 16 14 14 14 15 17 19 16 19 23 15 16 19 19 19 14 14 14 18 19 20 21 22 23 24 25 25 26 26 28 29 29 29 30 30 31 32 32 33 34 34 35 35
18 17 16 16 14 17 18 20 16 20 15 12 13 15 17 15 13 13 13 17 19 21 23 24 25 25 26 27 28 28 29 29 30 31 31 30 31 31 32 33 33 35 35 36
19 20 20 17 13 13 15 14 20 20 20 15 14 18 21 17 16 13 13 16 18 19 23 25 25 25 27 28 29 31 32 33 33 34 34 34 33 32 32 33 33 34 35 36
21 18 15 14 16 16 14 13 19 21 15 19 20 19 21 21 17 15 14 16 18 24 26 26 26 26 26 26 27 28 29 30 31 32 34 35 36 35 34 34 34 35 35 36
20 16 13 12 21 19 14 15 20 24 24 18 21 19 22 22 16 15 15 17 23 24 25 25 26 25 26 27 28 28 29 31 31 31 33 34 35 35 36 35 35 36 36 37
29 18 13 11 15 19 15 15 24 20 19 18 19 17 17 20 18 15 16 17 23 23 24 25 25 25 26 27 27 28 29 30 29 29 31 32 32 32 33 34 35 36 37 37
20 16 18 17 21 17 16 16 21 19 16 15 14 19 18 20 21 17 17 19 23 24 23 25 25 25 25 27 27 28 29 30 29 27 27 28 30 31 32 32 33 34 36 37
23 17 19 23 21 20 19 18 18 20 19 17 16 15 21 21 21 20 19 17 19 22 23 24 25 26 25 26 26 28 29 30 30 28 28 28 29 29 31 31 32 32 33 34
22 22 20 13 23 22 18 21 19 18 19 17 17 14 18 19 20 20 20 22 22 23 22 25 26 26 26 26 26 28 29 30 30 30 30 30 30 30 31 31 31 31 32 32
23 22 24 17 22 17 16 23 22 19 18 19 17 18 20 20 22 23 23 23 23 24 25 26 26 27 28 28 29 30 31 31 32 32 32 32 31 31 31 31 31 31 31 31
25 26 24 21 19 17 18 21 22 21 20 22 18 18 19 22 27 22 24 24 24 25 28 28 28 29 29 28 29 30 31 31 32 33 33 33 33 32 32 32 32 31 31 31
28 26 23 22 17 14 16 21 26 24 21 25 24 22 21 25 22 25 30 27 27 28 28 29 29 28 28 29 30 31 32 32 33 34 35 35 35 34 33 33 33 33 32 32
25 25 22 24 22 21 23 26 27 17 18 27 26 25 27 25 26 27 28 28 28 29 30 30 29 28 28 31 32 33 34 34 35 36 36 36 36 35 35 35 34 34 34 33
23 24 24 24 22 17 26 26 23 25 32 28 28 28 28 27 28 28 29 28 28 28 29 29 30 31 32 34 34 35 35 36 38 37 37 37 37 37 36 36 36 36 35 34
22 25 23 24 22 23 27 27 27 30 29 28 28 29 29 29 29 29 30 29 29 30 31 32 33 33 35 36 37 37 38 38 37 37 37 38 37 37 37 37 37 37 37 36
27 29 26 24 25 27 28 27 30 29 30 34 29 30 31 29 30 30 30 31 32 33 33 34 35 36 37 39 39 39 39 38 38 38 38 38 38 39 39 39 39 38 37 37
27 28 27 26 27 29 30 31 30 31 31 30 31 31 31 31 30 30 32 33 34 34 35 37 38 39 40 40 40 39 39 40 39 38 38 38 38 38 38 39 39 39 39 39
28 27 24 22 27 25 24 31 31 32 32 32 31 31 32 32 32 34 34 35 35 37 39 39 40 40 40 39 40 40 40 39 39 38 38 39 39 38 38 38 38 40 41 42
Lifted_Index
8 7 6 7 8 7 6 5 5 6 7 6 6 6 7 7 8 8 8 9 9 10 12 13 14 14 15 15 16 16 16 16 16 16 17 17 17 17 17 18 18 18 19 19
7 7 8 8 8 7 6 5 5 6 7 7 6 6 7 7 8 8 8 8 9 10 11 12 13 14 15 15 15 16 16 16 16 16 16 17 17 17 17 17 17 18 18 18
8 8 9 9 8 7 6 6 5 6 6 6 6 5 6 7 7 8 8 8 9 9 10 11 12 13 14 15 15 15 15 16 16 16 16 16 16 16 16 16 17 17 17 18
8 9 9 9 8 7 7 7 7 6 5 5 5 4 5 6 7 7 8 9 9 9 10 10 11 12 14 14 15 15 15 15 15 15 15 15 14 14 15 15 16 16 17 17
9 9 9 8 9 8 8 8 8 6 5 4 3 3 4 5 6 7 8 9 9 10 10 11 11 12 13 14 14 14 14 14 14 14 14 14 13 14 14 15 15 15 16 16
9 10 10 9 9 9 9 8 6 5 4 3 3 3 4 5 6 7 8 9 9 10 10 11 11 12 13 13 13 14 14 13 13 13 13 13 13 13 14 14 14 15 15 15
8 9 10 10 9 9 8 6 4 2 2 2 3 3 4 5 7 8 8 9 9 9 10 11 11 12 12 13 13 13 13 13 13 13 13 13 13 13 13 14 14 14 14 15
5 6 9 10 9 8 7 5 3 1 1 2 2 3 4 6 7 8 9 9 9 9 10 10 11 11 12 12 12 13 12 12 13 12 12 12 13 13 13 13 14 14 14 14
5 6 8 10 10 9 7 6 4 3 1 1 2 3 4 5 7 8 8 8 8 9 9 9 10 11 11 12 12 12 12 12 12 12 12 12 12 13 13 13 13 14 14 15
7 6 8 9 10 9 8 6 5 3 2 1 1 2 3 5 6 7 7 8 8 8 8 9 9 10 10 11 11 12 12 12 12 12 12 12 12 12 13 13 13 13 14 15
8 7 7 8 8 8 7 6 5 4 2 1 1 2 3 5 6 7 7 8 8 8 8 8 8 9 9 9 10 10 11 11 11 12 12 12 12 12 12 13 13 13 14 14
9 7 5 6 8 8 7 6 6 4 3 2 2 2 4 5 6 7 8 8 8 8 8 8 8 8 8 8 8 9 9 10 10 11 12 12 12 12 13 13 13 14 14 14
9 7 5 5 6 7 7 6 6 5 4 3 2 3 4 6 6 7 8 8 8 8 8 8 8 8 8 8 8 8 8 9 9 9 10 11 11 12 13 13 13 13 13 13
10 8 5 5 5 6 5 5 6 5 4 3 2 3 4 6 6 7 7 8 8 8 8 8 8 7 7 8 8 8 8 8 8 8 8 9 10 11 12 13 13 13 13 12
10 8 6 6 6 6 6 6 6 5 5 4 3 3 4 6 7 7 7 7 7 8 8 8 8 8 8 8 8 8 8 8 8 8 7 8 8 9 11 12 13 13 12 12
9 8 6 6 7 7 6 6 6 6 5 5 4 3 4 6 7 7 7 7 7 7 7 8 8 8 8 8 8 8 8 8 8 7 7 7 8 9 10 11 12 12 12 12
9 8 7 6 6 6 6 6 6 6 6 5 4 4 4 5 6 7 7 7 7 7 7 7 8 8 8 8 8 8 9 9 8 7 7 7 8 8 9 10 11 11 11 11
9 9 7 6 5 5 6 6 6 6 5 5 5 4 4 5 6 7 7 7 7 7 7 7 8 8 8 8 9 9 9 9 8 7 7 7 8 9 9 10 10 10 10 10
10 9 8 6 4 5 6 7 6 5 5 5 5 4 4 5 6 6 6 6 7 7 7 7 8 8 8 8 9 9 9 8 7 7 7 7 8 9 9 9 9 9 9 9
10 9 8 6 4 4 7 8 7 5 4 4 4 4 4 5 5 5 6 6 6 6 7 7 7 8 8 8 8 8 8 7 7 7 7 8 9 9 9 9 9 9 9 9
8 8 7 6 4 5 8 8 7 5 4 4 4 4 5 5 5 5 6 6 6 6 6 6 7 7 7 8 8 7 7 7 7 7 8 9 9 10 10 10 10 10 10 10
7 6 6 6 5 6 9 8 6 5 5 5 5 5 5 5 5 6 6 6 6 6 6 6 6 7 7 7 7 6 6 7 7 8 9 10 10 10 11 11 11 11 11 11
8 7 7 6 6 7 8 8 6 6 6 6 6 6 6 5 5 5 6 6 6 6 6 6 6 6 6 6 6 6 6 7 8 9 10 10 11 11 11 12 12 12 12 12
9 9 8 7 8 8 8 8 7 6 6 6 6 6 6 6 5 5 6 6 6 6 6 6 6 6 6 6 6 6 7 8 9 10 11 11 12 12 12 12 13 13 12 12
10 9 9 8 8 8 8 7 7 7 6 6 7 6 6 6 6 5 6 6 6 6 6 6 6 6 6 6 6 7 8 9 10 11 11 12 13 13 13 13 13 13 12 12
10 9 9 8 8 8 8 7 7 7 7 7 7 7 6 6 5 5 5 6 5 5 5 6 6 6 6 6 6 7 9 10 11 11 12 13 13 13 13 13 13 13 12 12